Weather History for Columbia Airport, CA

Change the Weather History Date:

Wednesday, August 28, 2013

  Actual Average (KMOD) Record (KMOD)
Temperature  
Mean Temperature 75 °F -  
Max Temperature 91 °F 92 °F 105 °F (1981)
Min Temperature 59 °F 62 °F 50 °F (1946)
Degree Days  
Heating Degree Days 0 0  
Month to date heating degree days 0  
Since 1 June heating degree days 3  
Since 1 July heating degree days 0  
Cooling Degree Days 10 12  
Month to date cooling degree days 366  
Year to date cooling degree days 1301  
Since 1 June cooling degree days 1102  
Growing Degree Days 25 (Base 50)    
Moisture  
Dew Point 46 °F    
Average Humidity 40    
Maximum Humidity 67    
Minimum Humidity 17    
Precipitation  
Precipitation 0.00 in 0.00 in 0.00 in (2014)
Month to date precipitation 0.02  
Year to date precipitation 8.77  
Since 1 July precipitation 0.02  
Snow  
Snow 0.00 in - - ()
Month to date snowfall  
Since 1 June snowfall  
Since 1 July snowfall  
Snow Depth -    
Sea Level Pressure  
Sea Level Pressure 29.93 in    
Wind  
Wind Speed 2 mph (WSW)    
Max Wind Speed 10 mph    
Max Gust Speed 16 mph    
Visibility 8 miles    
Events      
T = Trace of Precipitation, MM = Missing Value Source: NWS Daily Summary

Daily Weather History Graph

Daily Weather History Graph

Search for Another Location

Airport:

Trip Planner

Search our weather history database for the weather conditions in past years. The results will help you decide how hot, cold, wet, or windy it might be!

Date:

Astronomy

Aug. 28, 2013 Rise Set
Actual Time 6:28 AM PDT 7:36 PM PDT
Civil Twilight 6:01 AM PDT 8:03 PM PDT
Nautical Twilight 5:28 AM PDT 8:35 PM PDT
Astronomical Twilight 4:54 AM PDT 9:09 PM PDT
Moon No Moon Rise 2:15 PM PDT (8/28)
Length of Visible Light 14h 02m
Length of Day
13h 08m
Last Quarter, 46% of the Moon is Illuminated
Aug 28
Last Quarter
Sep 5
New
Sep 12
First Quarter
Sep 19
Full
Sep 26
Last Quarter

Hourly Weather History & Observations

Time (PDT) Temp. Dew Point Humidity Pressure Visibility Wind Dir Wind Speed Gust Speed Precip Events Conditions
12:15 AM 64.4 °F 48.2 °F 56% 29.89 in 10.0 mi Calm Calm - N/A   Mostly Cloudy
12:35 AM 64.4 °F 48.2 °F 56% 29.89 in 10.0 mi NE 3.5 mph - N/A   Mostly Cloudy
12:55 AM 64.4 °F 48.2 °F 56% 29.89 in 10.0 mi Calm Calm - N/A   Mostly Cloudy
1:15 AM 64.4 °F 46.4 °F 52% 29.89 in 10.0 mi Calm Calm - N/A   Mostly Cloudy
1:35 AM 64.4 °F 48.2 °F 56% 29.89 in 10.0 mi Calm Calm - N/A   Mostly Cloudy
1:55 AM 64.4 °F 48.2 °F 56% 29.88 in 10.0 mi Calm Calm - N/A   Mostly Cloudy
2:15 AM 62.6 °F 48.2 °F 59% 29.88 in 10.0 mi Calm Calm - N/A   Mostly Cloudy
2:35 AM 62.6 °F 48.2 °F 59% 29.88 in 10.0 mi Calm Calm - N/A   Overcast
2:55 AM 62.6 °F 46.4 °F 55% 29.87 in 10.0 mi Calm Calm - N/A   Scattered Clouds
3:15 AM 62.6 °F 46.4 °F 55% 29.87 in 10.0 mi Calm Calm - N/A   Clear
3:35 AM 62.6 °F 46.4 °F 55% 29.88 in 10.0 mi Calm Calm - N/A   Scattered Clouds
3:55 AM 62.6 °F 48.2 °F 59% 29.87 in 10.0 mi NE 3.5 mph - N/A   Mostly Cloudy
4:15 AM 60.8 °F 46.4 °F 59% 29.87 in 10.0 mi Calm Calm - N/A   Scattered Clouds
4:35 AM 59.0 °F 46.4 °F 63% 29.88 in 10.0 mi Calm Calm - N/A   Overcast
4:55 AM 59.0 °F 46.4 °F 63% 29.88 in 10.0 mi ENE 3.5 mph - N/A   Overcast
5:15 AM 59.0 °F 46.4 °F 63% 29.88 in 8.0 mi Calm Calm - N/A   Overcast
5:35 AM 59.0 °F 46.4 °F 63% 29.89 in 8.0 mi Calm Calm - N/A   Overcast
5:55 AM 59.0 °F 48.2 °F 67% 29.89 in 6.0 mi Calm Calm - N/A   Mostly Cloudy
6:15 AM 59.0 °F 48.2 °F 67% 29.89 in 5.0 mi Calm Calm - N/A   Scattered Clouds
6:35 AM 59.0 °F 48.2 °F 67% 29.90 in 5.0 mi Calm Calm - N/A   Scattered Clouds
6:55 AM 60.8 °F 48.2 °F 63% 29.91 in 5.0 mi Calm Calm - N/A   Scattered Clouds
7:15 AM 62.6 °F 48.2 °F 59% 29.92 in 4.0 mi Calm Calm - N/A   Partly Cloudy
7:35 AM 64.4 °F 50.0 °F 59% 29.92 in 4.0 mi Calm Calm - N/A   Partly Cloudy
7:55 AM 68.0 °F 50.0 °F 52% 29.92 in 3.0 mi Calm Calm - N/A   Clear
8:15 AM 69.8 °F 50.0 °F 49% 29.92 in 3.0 mi Calm Calm - N/A   Clear
8:35 AM 73.4 °F 50.0 °F 44% 29.93 in 1.8 mi Calm Calm - N/A   Clear
8:55 AM 75.2 °F 50.0 °F 41% 29.93 in 1.5 mi Calm Calm - N/A   Clear
9:15 AM 77.0 °F 50.0 °F 39% 29.94 in 1.5 mi Calm Calm - N/A   Clear
9:35 AM 78.8 °F 50.0 °F 36% 29.94 in 1.5 mi West 3.5 mph - N/A   Clear
9:55 AM 80.6 °F 48.2 °F 32% 29.95 in 1.5 mi Calm Calm - N/A   Clear
10:15 AM 82.4 °F 48.2 °F 30% 29.95 in 3.0 mi SSW 3.5 mph - N/A   Clear
10:35 AM 84.2 °F 46.4 °F 27% 29.95 in 4.0 mi SW 4.6 mph - N/A   Clear
10:55 AM 84.2 °F 46.4 °F 27% 29.95 in 3.0 mi South 6.9 mph - N/A   Clear
11:15 AM 84.2 °F 46.4 °F 27% 29.96 in 4.0 mi South 5.8 mph - N/A   Clear
11:35 AM 86.0 °F 46.4 °F 25% 29.96 in 5.0 mi SSW 5.8 mph - N/A   Clear
11:55 AM 86.0 °F 46.4 °F 25% 29.96 in 5.0 mi SSW 8.1 mph - N/A   Clear
12:15 PM 86.0 °F 44.6 °F 23% 29.96 in 7.0 mi South 10.4 mph - N/A   Clear
12:35 PM 87.8 °F 44.6 °F 22% 29.95 in 9.0 mi SW 6.9 mph - N/A   Partly Cloudy
12:55 PM 89.6 °F 44.6 °F 21% 29.95 in 9.0 mi WSW 6.9 mph - N/A   Partly Cloudy
1:15 PM 89.6 °F 44.6 °F 21% 29.95 in 10.0 mi WSW 8.1 mph - N/A   Partly Cloudy
1:35 PM 89.6 °F 44.6 °F 21% 29.95 in 10.0 mi West 6.9 mph - N/A   Clear
1:55 PM 87.8 °F 44.6 °F 22% 29.95 in 10.0 mi West 8.1 mph - N/A   Scattered Clouds
2:15 PM 89.6 °F 41.0 °F 18% 29.94 in 10.0 mi West 8.1 mph 16.1 mph N/A   Mostly Cloudy
2:35 PM 91.4 °F 41.0 °F 17% 29.94 in 10.0 mi West 8.1 mph - N/A   Partly Cloudy
2:55 PM 91.4 °F 41.0 °F 17% 29.93 in 10.0 mi WSW 6.9 mph - N/A   Clear
3:15 PM 91.4 °F 41.0 °F 17% 29.93 in 10.0 mi West 6.9 mph - N/A   Clear
3:35 PM 91.4 °F 42.8 °F 18% 29.93 in 10.0 mi SW 6.9 mph - N/A   Clear
3:55 PM 89.6 °F 42.8 °F 20% 29.93 in 10.0 mi WSW 4.6 mph - N/A   Clear
4:15 PM 89.6 °F 44.6 °F 21% 29.92 in 10.0 mi WSW 5.8 mph - N/A   Clear
4:35 PM 91.4 °F 44.6 °F 20% 29.92 in 10.0 mi SW 8.1 mph - N/A   Clear
4:55 PM 89.6 °F 44.6 °F 21% 29.93 in 10.0 mi WSW 6.9 mph - N/A   Clear
5:15 PM 89.6 °F 41.0 °F 18% 29.92 in 10.0 mi SW 10.4 mph - N/A   Clear
5:35 PM 87.8 °F 41.0 °F 19% 29.92 in 10.0 mi WSW 6.9 mph - N/A   Clear
5:55 PM 86.0 °F 41.0 °F 20% 29.92 in 10.0 mi West 6.9 mph - N/A   Clear
6:15 PM 86.0 °F 41.0 °F 20% 29.92 in 10.0 mi WSW 5.8 mph - N/A   Clear
6:35 PM 86.0 °F 42.8 °F 22% 29.92 in 10.0 mi SW 3.5 mph - N/A   Clear
6:55 PM 84.2 °F 42.8 °F 23% 29.92 in 10.0 mi WSW 5.8 mph - N/A   Clear
7:15 PM 82.4 °F 44.6 °F 26% 29.93 in 10.0 mi WNW 3.5 mph - N/A   Clear
7:35 PM 77.0 °F 44.6 °F 32% 29.93 in 10.0 mi WNW 3.5 mph - N/A   Clear
7:55 PM 78.8 °F 46.4 °F 32% 29.94 in 10.0 mi NW 6.9 mph - N/A   Clear
8:15 PM 77.0 °F 46.4 °F 34% 29.95 in 10.0 mi NW 4.6 mph - N/A   Clear
8:35 PM 75.2 °F 44.6 °F 34% 29.95 in 10.0 mi Calm Calm - N/A   Clear
8:55 PM 71.6 °F 46.4 °F 41% 29.96 in 10.0 mi ENE 3.5 mph - N/A   Clear
9:15 PM 69.8 °F 46.4 °F 43% 29.96 in 10.0 mi NE 3.5 mph - N/A   Clear
9:35 PM 68.0 °F 46.4 °F 46% 29.97 in 10.0 mi Calm Calm - N/A   Clear
9:55 PM 68.0 °F 46.4 °F 46% 29.97 in 10.0 mi NNE 3.5 mph - N/A   Clear
10:15 PM 66.2 °F 46.4 °F 49% 29.97 in 10.0 mi NE 4.6 mph - N/A   Clear
10:35 PM 66.2 °F 46.4 °F 49% 29.97 in 10.0 mi NE 4.6 mph - N/A   Clear
10:55 PM 64.4 °F 46.4 °F 52% 29.97 in 10.0 mi Calm Calm - N/A   Clear
11:15 PM 64.4 °F 46.4 °F 52% 29.97 in 10.0 mi Calm Calm - N/A   Clear
11:35 PM 62.6 °F 46.4 °F 55% 29.97 in 10.0 mi Calm Calm - N/A   Clear
11:55 PM 62.6 °F 46.4 °F 55% 29.97 in 10.0 mi Calm Calm - N/A   Clear